Weather reports worldwide

Advertisment
Freiburg, Germany (10803): temperature & dewpoint: 12.01.2020 14:00:00 - 18.01.2020 14:00:00 (CET)Freiburg, Germany (10803): temperature 5cm & temperature -5cm: 12.01.2020 14:00:00 - 18.01.2020 14:00:00 (CET)Freiburg, Germany (10803): temperature -20cm & temperature -100cm: 12.01.2020 14:00:00 - 18.01.2020 14:00:00 (CET)Freiburg, Germany (10803): wind speed & gusts: 12.01.2020 14:00:00 - 18.01.2020 14:00:00 (CET)Freiburg, Germany (10803): wind direction: 12.01.2020 14:00:00 - 18.01.2020 14:00:00 (CET)Freiburg, Germany (10803): reduced air pressure: 12.01.2020 14:00:00 - 18.01.2020 14:00:00 (CET)Freiburg, Germany (10803): visibility: 12.01.2020 14:00:00 - 18.01.2020 14:00:00 (CET)Freiburg, Germany (10803): sunshine duration: 12.01.2020 14:00:00 - 18.01.2020 14:00:00 (CET)Freiburg, Germany (10803): precipitation: 12.01.2020 14:00:00 - 18.01.2020 14:00:00 (CET)
Date & Time tt [°C] td [°C] tt 5cm [°C] tt -5cm [°C] tt -20cm [°C] tt -100cm [°C] ff [km/h] ff [kn] fx [km/h] fx [kn] dd ppp [hPa] vv [km] sd [min] rr [mm]
18.01.2020 14:00:00 6,5 1,2 6,7 6,7 5,4 7,3 18 10 30 16 SW 1028,4 67 0 0,0
18.01.2020 13:00:00 6,5 1,0 6,7 6,7 5,3 7,3 20 11 33 18 SW 1028,8 70 5 0,0
18.01.2020 12:00:00 6,3 1,6 6,7 7,0 5,0 7,3 20 11 35 19 SSW 1029,4 66 36 0,0
18.01.2020 11:00:00 6,3 0,9 7,9 7,4 4,8 7,3 23 12 36 20 SW 1029,5 37 60 0,0
18.01.2020 10:00:00 5,7 0,5 6,1 4,5 4,9 7,3 15 8 34 18 SSW 1029,1 63 57 0,0
18.01.2020 09:00:00 4,9 0,6 3,2 2,5 5,1 7,3 19 11 32 17 SSW 1029,1 70 3 0,0
18.01.2020 08:00:00 4,9 1,6 2,7 2,7 5,2 7,3 19 11 29 16 SSW 1029,0 58 0 0,0
18.01.2020 07:00:00 5,2 2,2 3,0 2,9 5,4 7,3 17 9 26 14 SW 1028,8 48 0 0,0
18.01.2020 06:00:00 5,4 2,8 2,9 3,8 5,5 7,3 7 4 18 10 WSW 1028,3 48 0 0,0
18.01.2020 05:00:00 6,0 3,5 4,7 4,6 5,5 7,3 9 5 21 12 WSW 1027,9 44 0 0,0
18.01.2020 04:00:00 5,9 3,9 4,5 4,6 5,6 7,3 10 6 18 10 SSW 1027,4 43 0 0,0
18.01.2020 03:00:00 6,2 4,0 4,9 4,9 5,6 7,3 10 5 26 14 SW 1027,1 45 0 0,1
18.01.2020 02:00:00 6,4 3,9 5,2 5,0 5,7 7,3 16 8 27 14 WSW 1026,4 4,9 0 0,4
18.01.2020 01:00:00 6,8 3,9 5,0 4,9 5,8 7,3 10 5 15 8 SW 1025,6 70 0 0,0
18.01.2020 00:00:00 6,8 4,4 4,6 5,2 5,8 7,3 7 4 17 9 SSW 1025,1 54 0 0,1
17.01.2020 23:00:00 7,2 5,3 6,0 5,8 5,8 7,3 8 4 13 7 SSW 1024,7 18 0 0,0
17.01.2020 22:00:00 7,6 5,3 6,3 6,2 5,7 7,3 10 6 24 13 SW 1024,0 28 0 1,2
17.01.2020 21:00:00 8,1 6,4 7,1 6,2 5,7 7,2 11 6 25 13 SW 1023,1 32 0 0,0
17.01.2020 20:00:00 8,1 6,4 7,1 6,3 5,6 7,2 13 7 29 16 SW 1022,7 36 0 0,3
17.01.2020 19:00:00 8,5 6,0 7,7 6,3 5,5 7,2 14 8 29 16 SW 1022,1 50 0 0,0
17.01.2020 18:00:00 8,8 5,8 7,6 6,4 5,4 7,2 16 9 32 17 SSW 1021,6 70 0 0,5
17.01.2020 17:00:00 8,6 5,8 7,0 6,5 5,2 7,2 16 8 31 17 SSW 1021,0 21 0 1,1
17.01.2020 16:00:00 8,9 5,9 7,3 6,6 5,1 7,2 17 9 30 16 SSW 1020,9 13 0 1,4
17.01.2020 15:00:00 9,5 5,1 7,4 6,6 4,9 7,2 21 11 41 22 SSW 1020,7 15 0 0,4
17.01.2020 14:00:00 11,2 2,9 9,9 6,5 4,6 7,2 17 9 34 19 SSW 1020,2 58 0 0,0
17.01.2020 13:00:00 11,1 2,2 10,3 7,0 4,2 7,2 16 9 24 13 SSW 1020,3 53 0 0,0
17.01.2020 12:00:00 11,3 2,2 10,8 6,6 3,9 7,2 14 8 24 13 SSW 1020,9 70 0 0,0
17.01.2020 11:00:00 11,1 2,0 9,8 4,8 3,8 7,2 16 9 32 18 SSW 1021,3 64 3 0,0
17.01.2020 10:00:00 9,6 2,0 7,2 1,3 3,9 7,2 17 9 31 17 S 1021,6 70 3 0,0
17.01.2020 09:00:00 3,2 0,7 -0,1 0,5 4,0 7,2 4 2 6 4 S 1022,2 33 0 0,0
17.01.2020 08:00:00 3,0 0,6 -1,7 0,5 4,2 7,2 4 2 7 4 S 1022,1 21 0 0,0
17.01.2020 07:00:00 2,3 0,6 -2,6 0,6 4,3 7,2 4 2 5 3 SW 1022,5 24 0 0,0
17.01.2020 06:00:00 3,3 0,6 -1,7 0,7 4,5 7,2 4 2 10 5 SSE 1022,7 66 0 0,0
17.01.2020 05:00:00 4,2 0,7 -0,2 0,8 4,7 7,2 6 3 16 8 SSE 1023,2 58 0 0,0
17.01.2020 04:00:00 6,6 2,0 0,9 0,8 4,9 7,2 11 6 14 7 SSE 1023,5 66 0 0,0
17.01.2020 03:00:00 0,4 -1,1 -2,2 0,9 5,1 7,2 4 2 6 4 SSE 1024,8 12 0 0,0
17.01.2020 02:00:00 1,5 1,2 -2,4 1,0 5,3 7,2 3 2 7 4 NNW 1024,6 10 0 0,0
17.01.2020 01:00:00 2,1 1,4 -2,3 1,0 5,6 7,2 4 2 8 4 E 1024,7 4,5 0 0,0
17.01.2020 00:00:00 1,7 1,2 -2,2 1,2 6,0 7,2 3 2 6 3 W 1024,9 10 0 0,0
16.01.2020 23:00:00 3,4 2,5 -1,9 1,7 6,3 7,2 2 1 5 3 ENE 1024,9 6 0 0,0
16.01.2020 22:00:00 3,2 2,3 -1,2 2,3 6,7 7,2 0 0 4 2 N 1025,7 16 0 0,0
16.01.2020 21:00:00 3,8 2,8 -0,8 3,0 7,0 7,2 0 0 5 3 N 1026,0 27 0 0,0
16.01.2020 20:00:00 5,4 3,3 0,2 3,9 7,4 7,2 3 1 7 4 SE 1026,2 21 0 0,0
16.01.2020 19:00:00 8,0 4,4 1,6 4,9 7,7 7,2 5 3 8 5 S 1026,4 42 0 0,0
16.01.2020 18:00:00 7,8 4,0 2,2 6,3 7,9 7,2 6 4 8 4 S 1026,4 37 0 0,0
16.01.2020 17:00:00 10,2 4,4 5,0 8,6 7,9 7,2 4 2 10 6 NNW 1026,3 47 14 0,0
16.01.2020 16:00:00 13,1 4,2 14,3 11,0 7,7 7,2 6 4 12 6 NW 1025,7 63 60 0,0
16.01.2020 15:00:00 13,8 3,8 17,1 12,8 7,4 7,2 5 3 11 6 NW 1025,7 67 60 0,0
16.01.2020 14:00:00 14,0 3,7 17,7 13,6 7,0 7,2 5 3 13 7 N 1026,1 64 60 0,0
16.01.2020 13:00:00 13,5 3,8 16,4 13,7 6,5 7,2 5 3 16 8 W 1027,0 62 60 0,0
16.01.2020 12:00:00 12,9 3,6 16,2 12,4 6,1 7,2 6 3 10 5 NNE 1027,8 70 60 0,0
16.01.2020 11:00:00 11,5 5,0 14,1 9,4 5,9 7,2 3 2 5 3 WSW 1028,7 47 9 0,0
16.01.2020 10:00:00 9,2 5,8 8,9 6,7 5,9 7,2 2 1 5 3 WSW 1029,2 16 0 0,0
16.01.2020 09:00:00 8,5 3,9 6,8 5,8 5,9 7,2 2 1 4 2 E 1029,0 15 0 0,0
16.01.2020 08:00:00 8,2 3,8 5,0 5,5 5,9 7,2 0 0 5 3 N 1028,8 12 0 0,0
16.01.2020 07:00:00 9,4 3,7 6,6 6,2 5,9 7,2 2 1 9 5 E 1028,3 57 0 0,0
16.01.2020 06:00:00 10,1 3,8 8,1 6,4 5,9 7,2 7 4 13 7 S 1028,3 70 0 0,0
16.01.2020 05:00:00 11,1 3,2 8,7 6,4 5,8 7,2 9 5 20 11 SSW 1028,0 70 0 0,0
16.01.2020 04:00:00 11,7 3,1 9,8 6,4 5,8 7,2 13 7 23 12 SSW 1027,6 70 0 0,0
16.01.2020 03:00:00 11,9 2,8 10,1 6,4 5,8 7,2 13 7 19 11 SSW 1027,5 70 0 0,0
16.01.2020 02:00:00 11,6 3,1 9,9 6,4 5,7 7,2 13 7 24 13 SSW 1027,2 70 0 0,0
16.01.2020 01:00:00 11,9 2,9 10,2 6,4 5,7 7,2 18 10 27 14 SSW 1026,9 70 0 0,0
16.01.2020 00:00:00 12,0 2,6 10,3 6,2 5,6 7,2 18 10 24 13 SSW 1026,4 70 0 0,0
15.01.2020 23:00:00 11,7 2,7 9,8 6,1 5,6 7,2 13 7 23 12 SSW 1025,7 70 0 0,0
15.01.2020 22:00:00 11,7 3,0 10,0 6,2 5,6 7,2 18 10 28 15 SW 1024,8 70 0 0,0
15.01.2020 21:00:00 12,1 2,8 10,0 5,8 5,6 7,2 14 7 21 11 S 1024,5 70 0 0,0
15.01.2020 20:00:00 11,4 3,0 8,2 5,1 5,7 7,2 10 6 18 10 SW 1023,9 70 0 0,0
15.01.2020 19:00:00 11,3 2,9 6,9 5,3 5,8 7,2 8 4 26 14 SSW 1023,3 60 0 0,0
15.01.2020 18:00:00 12,9 2,8 10,5 6,2 5,8 7,2 10 5 27 15 SW 1022,4 70 0 0,0
15.01.2020 17:00:00 12,8 2,5 9,0 6,7 5,7 7,2 12 7 29 15 SSW 1021,1 70 13 0,0
15.01.2020 16:00:00 13,9 2,5 12,6 8,2 5,5 7,2 18 10 35 19 SSW 1020,4 38 60 0,0
15.01.2020 15:00:00 14,0 2,1 14,0 9,2 5,1 7,2 21 11 38 21 SSW 1020,3 26 60 0,0
15.01.2020 14:00:00 13,2 0,6 13,9 10,0 4,7 7,2 19 10 34 18 SSW 1020,0 44 60 0,0
15.01.2020 13:00:00 12,9 1,2 13,9 10,4 4,2 7,2 16 9 36 19 SW 1020,2 41 60 0,0
15.01.2020 12:00:00 12,3 0,5 12,3 8,8 3,8 7,2 14 8 28 15 SW 1020,2 55 60 0,0
15.01.2020 11:00:00 11,5 0,6 12,0 7,2 3,5 7,2 8 5 13 7 S 1020,2 56 60 0,0
15.01.2020 10:00:00 8,6 0,6 7,6 3,5 3,5 7,2 9 5 19 10 SSE 1020,0 53 60 0,0
15.01.2020 09:00:00 5,8 -0,2 3,7 1,2 3,6 7,2 16 9 23 12 SSE 1020,3 67 0 0,0
15.01.2020 08:00:00 5,7 -0,2 2,7 0,9 3,7 7,2 18 10 21 11 S 1019,9 68 0 0,0
15.01.2020 07:00:00 5,4 0,0 1,2 0,7 3,9 7,2 11 6 16 8 S 1019,9 70 0 0,0
15.01.2020 06:00:00 5,3 0,2 -0,5 0,8 4,0 7,2 6 4 15 8 S 1019,5 70 0 0,0
15.01.2020 05:00:00 5,3 0,4 1,4 1,3 4,2 7,2 10 6 14 7 SSE 1019,3 70 0 0,0
15.01.2020 04:00:00 6,5 0,6 2,7 1,8 4,3 7,2 10 5 14 8 SSE 1019,3 70 0 0,0
15.01.2020 03:00:00 7,4 0,5 3,8 2,2 4,4 7,2 12 6 16 9 SSE 1019,2 70 0 0,0
15.01.2020 02:00:00 7,3 1,1 2,9 2,9 4,4 7,2 12 7 37 20 S 1019,1 70 0 0,0
15.01.2020 01:00:00 8,4 1,6 5,9 3,0 4,6 7,3 26 14 37 20 S 1018,8 70 0 0,0
15.01.2020 00:00:00 6,2 1,2 2,6 2,3 4,7 7,3 13 7 16 8 S 1019,3 63 0 0,0
14.01.2020 23:00:00 7,4 1,8 3,0 2,6 4,9 7,3 8 5 16 9 S 1018,8 53 0 0,0
14.01.2020 22:00:00 7,0 2,3 3,0 3,0 5,0 7,3 8 4 11 6 S 1018,5 55 0 0,0
14.01.2020 21:00:00 6,1 2,7 0,8 3,5 5,1 7,3 4 2 11 6 SE 1018,6 46 0 0,0
14.01.2020 20:00:00 8,5 3,1 3,4 4,4 5,2 7,3 5 3 11 6 SSW 1018,2 52 0 0,0
14.01.2020 19:00:00 10,4 4,0 6,7 6,0 5,1 7,3 7 4 15 8 SSE 1017,9 53 0 0,2
14.01.2020 18:00:00 11,9 1,4 9,4 6,1 5,0 7,3 9 5 17 9 S 1017,7 53 0 0,0
14.01.2020 17:00:00 12,6 0,5 10,2 6,5 4,8 7,3 11 6 19 10 SSW 1017,2 49 0 0,0
14.01.2020 16:00:00 12,0 0,9 10,3 7,0 4,6 7,3 11 6 19 11 SSW 1017,2 25 0 0,0
14.01.2020 15:00:00 12,0 0,5 11,0 7,6 4,2 7,3 13 7 28 15 SW 1016,9 48 21 0,0
14.01.2020 14:00:00 12,2 0,0 12,7 8,4 3,7 7,3 19 10 32 17 SW 1016,9 42 40 0,0
14.01.2020 13:00:00 12,4 0,3 13,9 7,9 3,3 7,3 23 13 33 18 SW 1017,2 24 10 0,0
14.01.2020 12:00:00 10,9 -1,4 10,4 5,3 3,1 7,3 22 12 31 17 SSW 1017,9 35 3 0,0
14.01.2020 11:00:00 8,4 -0,8 7,8 1,6 3,1 7,3 11 6 16 9 SSW 1018,1 38 1 0,0
14.01.2020 10:00:00 6,4 -1,3 4,6 0,6 3,2 7,3 5 3 11 6 SE 1018,5 17 35 0,0
14.01.2020 09:00:00 2,7 -2,6 -0,4 0,4 3,2 7,3 8 5 13 7 WSW 1018,2 25 0 0,0
14.01.2020 08:00:00 4,3 -2,5 -1,9 0,5 3,3 7,3 3 1 18 10 SW 1017,7 50 0 0,0
14.01.2020 07:00:00 3,9 -1,8 -0,7 0,5 3,4 7,3 13 7 18 10 SSW 1017,5 29 0 0,0
14.01.2020 06:00:00 2,1 -1,1 -1,5 0,6 3,5 7,3 6 4 15 8 S 1017,7 26 0 0,0
14.01.2020 05:00:00 3,4 -1,1 -0,5 0,6 3,6 7,3 9 5 16 9 SW 1016,6 56 0 0,0
14.01.2020 04:00:00 2,5 -0,4 -1,5 0,7 3,7 7,3 6 3 11 6 SW 1017,0 66 0 0,0
14.01.2020 03:00:00 3,2 -0,2 -1,3 0,7 3,9 7,3 5 3 10 6 SW 1017,8 63 0 0,0
14.01.2020 02:00:00 2,9 -0,2 -1,2 0,8 4,0 7,3 7 4 10 5 SSW 1017,8 32 0 0,0
14.01.2020 01:00:00 0,4 -0,1 -2,9 0,8 4,2 7,3 3 2 8 4 S 1019,0 5 0 0,0
14.01.2020 00:00:00 0,6 0,2 -2,5 0,9 4,4 7,3 0 0 4 2 N 1019,2 5 0 0,0
13.01.2020 23:00:00 1,4 0,6 -2,7 1,0 4,6 7,3 3 1 9 5 ENE 1019,3 4,8 0 0,0
13.01.2020 22:00:00 3,5 1,4 0,0 1,2 4,8 7,3 7 4 11 6 SW 1019,1 16 0 0,0
13.01.2020 21:00:00 1,9 1,5 -2,4 1,4 5,1 7,3 0 0 5 3 N 1019,4 4,4 0 0,0
13.01.2020 20:00:00 2,3 1,9 -1,7 2,1 5,4 7,3 3 2 5 3 NW 1019,8 7 0 0,0
13.01.2020 19:00:00 3,2 2,5 -0,8 2,8 5,6 7,3 0 0 5 3 N 1020,1 8 0 0,0
13.01.2020 18:00:00 5,5 3,6 0,2 3,9 5,8 7,3 3 2 8 4 S 1020,0 14 0 0,0
13.01.2020 17:00:00 7,1 3,3 2,4 6,0 5,7 7,3 2 1 8 5 N 1020,1 22 15 0,0
13.01.2020 16:00:00 9,7 3,3 10,5 7,9 5,5 7,3 4 2 13 7 E 1019,9 29 60 0,0
13.01.2020 15:00:00 8,5 3,4 9,9 8,5 5,2 7,3 13 7 23 12 SSW 1020,8 25 60 0,0
13.01.2020 14:00:00 7,9 3,2 8,7 7,9 4,9 7,4 4 2 11 6 SW 1021,5 30 2 0,0
13.01.2020 13:00:00 7,6 4,2 9,4 7,9 4,5 7,4 6 4 9 5 NW 1022,0 31 0 0,0
13.01.2020 12:00:00 7,2 4,1 8,0 7,1 4,3 7,4 0 0 10 5 N 1022,8 41 0 0,0
13.01.2020 11:00:00 6,2 3,8 7,0 6,0 4,1 7,4 5 3 9 5 NE 1023,9 30 16 0,0
13.01.2020 10:00:00 4,8 3,1 4,8 4,2 4,0 7,4 3 2 10 6 S 1024,5 14 0 0,0
13.01.2020 09:00:00 3,9 2,8 3,6 3,1 4,0 7,4 3 2 6 3 ESE 1024,9 4,8 0 0,0
13.01.2020 08:00:00 3,4 1,4 2,5 2,5 4,0 7,4 3 2 8 5 SSW 1025,5 18 0 0,0
13.01.2020 07:00:00 3,2 1,9 1,9 2,7 4,1 7,4 0 0 4 2 N 1025,7 25 0 0,0
13.01.2020 06:00:00 3,5 1,8 2,4 2,7 4,1 7,4 4 2 5 3 NNE 1026,0 19 0 0,0
13.01.2020 05:00:00 3,0 1,5 2,2 2,8 4,1 7,4 0 0 5 3 N 1026,7 26 0 0,0
13.01.2020 04:00:00 3,7 1,6 1,9 2,9 4,2 7,4 4 2 10 6 S 1027,2 40 0 0,0
13.01.2020 03:00:00 3,7 1,8 2,8 3,1 4,2 7,4 3 2 4 2 S 1027,9 21 0 0,0
13.01.2020 02:00:00 3,9 1,8 3,2 3,3 4,1 7,4 0 0 6 4 N 1028,1 16 0 0,0
13.01.2020 01:00:00 3,6 1,4 2,5 3,1 4,1 7,4 3 2 6 3 NW 1028,6 24 0 0,0
13.01.2020 00:00:00 4,4 1,4 3,7 3,4 4,1 7,4 2 1 6 4 NNE 1029,0 25 0 0,0
12.01.2020 23:00:00 4,3 1,2 3,2 3,3 4,0 7,4 2 1 6 3 NNW 1029,4 27 0 0,0
12.01.2020 22:00:00 5,3 0,7 4,5 3,2 4,0 7,4 5 3 9 5 SE 1029,5 25 0 0,0
12.01.2020 21:00:00 5,4 0,8 4,5 3,0 4,0 7,4 8 4 22 12 WSW 1029,7 27 0 0,0
12.01.2020 20:00:00 5,1 0,4 4,1 2,4 4,1 7,4 8 5 16 9 SW 1029,9 26 0 0,0
12.01.2020 19:00:00 3,7 0,2 1,0 2,0 4,2 7,4 7 4 13 7 SSW 1029,9 25 0 0,0
12.01.2020 18:00:00 3,3 0,1 1,3 2,0 4,4 7,4 12 6 17 9 S 1029,8 24 0 0,0
12.01.2020 17:00:00 4,2 0,4 0,3 3,1 4,4 7,4 4 2 19 10 SSW 1029,8 23 2 0,0
12.01.2020 16:00:00 5,2 0,4 4,4 4,3 4,2 7,4 11 6 25 14 SW 1029,3 29 31 0,0
12.01.2020 15:00:00 4,8 0,4 4,9 5,0 4,0 7,4 17 9 33 18 SSW 1029,1 31 16 0,0
12.01.2020 14:00:00 4,7 0,2 6,1 6,0 3,7 7,4 22 12 37 20 SW 1029,7 27 46 0,0

tt = temperature
td = dewpoint
tt 5cm = temperature 5cm
tt -5cm = temperature -5cm
tt -20cm = temperature -20cm
tt -100cm = temperature -100cm
ff = wind speed
fx = gusts
dd = wind direction
ppp = reduced air pressure
vv = visibility
sd = sunshine duration
rr = precipitation

Next stations